This is the latest recevied weather packets stored in our database for station/object K5NWZ. If no packets are shown the sender has not sent any weather packets the latest 10 day(s).
| Time | Temp. | Humidity | Pressure | Rain* | Wind** | Luminosity | Snow |
|---|---|---|---|---|---|---|---|
| 1787978161 | 23.33° C | 46% | 1028.6 hPa | 0 mm | - | 0 W/m² | - |
| 1787977855 | 23.33° C | 44% | 1028.6 hPa | 0 mm | - | 0 W/m² | - |
| 1787977554 | 23.33° C | 44% | 1028.7 hPa | 0 mm | - | 0 W/m² | - |
| 1787977249 | 23.89° C | 44% | 1028.8 hPa | 0 mm | - | 0 W/m² | - |
| 1787976945 | 23.33° C | 45% | 1028.7 hPa | 0 mm | - | 0 W/m² | - |
| 1787976644 | 23.89° C | 45% | 1028.6 hPa | 0 mm | - | 0 W/m² | - |
| 1787976341 | 23.89° C | 42% | 1028.3 hPa | 0 mm | - | 0 W/m² | - |
| 1787976035 | 24.44° C | 42% | 1028.6 hPa | 0 mm | - | 0 W/m² | - |
| 1787975732 | 24.44° C | 42% | 1028.7 hPa | 0 mm | - | 0 W/m² | - |
| 1787975426 | 24.44° C | 42% | 1028.8 hPa | 0 mm | - | 0 W/m² | - |
| 1787975125 | 25° C | 41% | 1028.6 hPa | 0 mm | - | 0 W/m² | - |
| 1787974824 | 25° C | 39% | 1028.6 hPa | 0 mm | - | 0 W/m² | - |
| 1787974519 | 25.56° C | 39% | 1028.3 hPa | 0 mm | - | 0 W/m² | - |
| 1787974214 | 25.56° C | 38% | 1028.3 hPa | 0 mm | - | 0 W/m² | - |
| 1787973913 | 26.11° C | 39% | 1028.3 hPa | 0 mm | - | 0 W/m² | - |
| 1787973608 | 25.56° C | 37% | 1028 hPa | 0 mm | - | 0 W/m² | - |
| 1787973303 | 26.11° C | 36% | 1028.4 hPa | 0 mm | - | 0 W/m² | - |
| 1787973002 | 26.11° C | 34% | 1028.4 hPa | 0 mm | - | 0 W/m² | - |
| 1787972698 | 26.67° C | 35% | 1028.6 hPa | 0 mm | - | 0 W/m² | - |
| 1787972395 | 26.67° C | 34% | 1028.8 hPa | 0 mm | - | 0 W/m² | - |
| 1787972091 | 26.67° C | 34% | 1028.7 hPa | 0 mm | - | 0 W/m² | - |
| 1787971786 | 27.22° C | 33% | 1028.8 hPa | 0 mm | - | 0 W/m² | - |
| 1787971482 | 27.22° C | 33% | 1028.8 hPa | 0 mm | - | 0 W/m² | - |
| 1787971178 | 26.67° C | 33% | 1028.4 hPa | 0 mm | - | 0 W/m² | - |
| 1787970877 | 26.67° C | 35% | 1028.8 hPa | 0 mm | - | 0 W/m² | - |
* Rain latest hour (hover to see other rain measurements)
** Current wind speed in m/s (hover to see current wind gust speed)